Location: Strawberry
(45.6646°N, 111.9596°W)
Time: 23:01:57
(UTC+00:00)

Courier 1B Rocket - Pass Details

Date: 08 October 2022
Orbit: 920 x 1202 km, 28.3° (Epoch: 03 December)

Event Time Altitude Azimuth Distance (km) Brightness Sun altitude
Rises 02:06:37 0° 237° (WSW) 3,856 9.0 -13.1°
Reaches altitude 10° 02:10:26 10° 219° (SW) 2,841 7.9 -13.8°
Maximum altitude 02:14:39 17° 181° (S) 2,293 6.9 -14.5°
Drops below altitude 10° 02:18:43 10° 143° (SE) 2,719 6.9 -15.2°
Enters shadow 02:18:49 10° 142° (SE) 2,742 6.9 -15.2°
Sets 02:22:16 0° 123° (ESE) 3,622 - -15.8°
